STARLINK-31356, 58968

Orbit data source: Space-Track

STARLINK-31356, 58968 is a payload satellite owned by SpaceX/Seattle (US) in LEO that was launched on Thu, 15 Feb 2024 UTC via an FALCON 9 launch vehicle from the Air Force Western Test Range (AFWTR). Payload-class satellites include a variety of spacecraft equipped with specific instruments for various scientific and technological missions. These include communications satellites like Starlink; space stations such as the ISS; scientific satellites like the Hubble; Earth observation satellites from companies like Planet Labs, Umbra, and HawkEye 360; GPS; miniature CubeSats for education and research; and military/defense satellites.

Loading next visibility...
Identifier
58968, 2024-031D
Orbit
LEO
Country
Flag of USUS
Related business
Manufacturer
SpaceX/Seattle
Mission
Operational Commercial Communications
Bus & Motor
STARLINK V2M, Unknown motor
Mass
730 kg wet, ~700 kg dry
Launch date (UTC)
2024-02-15 (2 years ago)
Launch vehicle
FALCON 9
Launch site
Air Force Western Test Range (AFWTR)
Object type
Payload
Rocket body
Debris
Shape & HBR
Box + 2 Pan, 17.7 m
Radar Cross Section
33.884 m², Large (>1 m²)

Expand to show TLE details & history
Last TLE update: 2 days ago

TLE from 2 days ago
0 STARLINK-31356
1 58968U 24031D   26171.23921807 -.00000350  00000-0  33277-6 0  9992
2 58968  53.1600 152.5059 0001589  72.3385 287.7789 15.30202433132626
Epoch: 2026-06-20T05:44Z
TLE epoch observation values (Epoch: 2026-06-20T05:44:28.441Z)
Latitude
-0.00003°
Longitude
157.93068°
Altitude
475.775 km
Speed
7.629 km/s
True Right ascension
10h 10m 01s
True Declination
0° 00' 00"
Sunlit
Object was in daylight at epoch
Visualization orbit readout
Latitude
Unknown
Longitude
Unknown
Altitude
Unknown
Speed
Unknown
Apparent Right ascension
Unknown
Apparent Declination
Unknown
Sunlit
N/A
Visualization observer readout
Local Sidereal Time
21:25:52
Azimuth
Unknown
Elevation
Unknown
Doppler factor
Unknown
Orbital elements
Apogee altitude
476.553 km
Perigee altitude
474.375 km
Semi-major axis
6,853.601 km
Eccentricity
0.00016
Inclination
53.16°
RAAN
152.5059°
Arg. of periapsis
72.3385°
True anomaly
287.76156°
Mean anomaly
287.7789°
Eccentric anomaly
287.77023°
Mean motion
3.82529 °/min
Orbital period
94.11 mins
BSTAR
3.3277e-7
Loading maneuver chart data...
Computing Atmospheric mass density...
Loading historical data...
Loading historical data...
Loading historical data...
Loading historical data...
Loading historical data...
Loading historical data...
Loading historical data...

Documentation

Showing up to 5 results
|